Time,TemperatureF,DewpointF,PressureIn,WindDirection,WindDirectionDegrees,WindSpeedMPH,WindSpeedGustMPH,Humidity,HourlyPrecipIn,Conditions,Clouds,dailyrainin,SoftwareType,DateUTC
2013-12-23 00:01:00,3.0,0.0,30.22,SW,225,8.0,13.0,90,0.00,,,0.00,TxWx,2013-12-23 06:01:00,
2013-12-23 00:06:00,3.0,0.0,30.22,SW,225,5.0,16.0,90,0.00,,,0.00,TxWx,2013-12-23 06:06:00,
2013-12-23 00:11:00,3.0,0.0,30.22,SSW,202,5.0,12.0,90,0.00,,,0.00,TxWx,2013-12-23 06:11:00,
2013-12-23 00:16:00,3.0,0.0,30.22,SW,225,6.0,13.0,90,0.00,,,0.00,TxWx,2013-12-23 06:16:00,
2013-12-23 00:21:00,3.0,0.0,30.22,SSW,202,11.0,14.0,90,0.00,,,0.00,TxWx,2013-12-23 06:21:00,
2013-12-23 00:26:00,3.0,0.0,30.22,South,180,5.0,15.0,90,0.00,,,0.00,TxWx,2013-12-23 06:26:00,
2013-12-23 00:31:00,3.0,0.0,30.22,SSW,202,5.0,11.0,90,0.00,,,0.00,TxWx,2013-12-23 06:31:00,
2013-12-23 00:36:00,3.0,0.0,30.22,SSW,202,8.0,14.0,90,0.00,,,0.00,TxWx,2013-12-23 06:36:00,
2013-12-23 00:41:00,2.0,-1.0,30.22,WSW,247,6.0,13.0,90,0.00,,,0.00,TxWx,2013-12-23 06:41:00,
2013-12-23 00:46:00,2.0,-1.0,30.22,SW,225,5.0,14.0,90,0.00,,,0.00,TxWx,2013-12-23 06:46:00,
2013-12-23 00:51:00,2.0,-1.0,30.23,West,270,5.0,16.0,91,0.00,,,0.00,TxWx,2013-12-23 06:51:00,
2013-12-23 00:56:00,2.0,-1.0,30.23,SW,225,6.0,10.0,90,0.00,,,0.00,TxWx,2013-12-23 06:56:00,
2013-12-23 01:01:00,2.0,-1.0,30.23,SSW,202,9.0,12.0,90,0.00,,,0.00,TxWx,2013-12-23 07:01:00,
2013-12-23 01:06:00,2.0,-1.0,30.23,SW,225,5.0,14.0,91,0.00,,,0.00,TxWx,2013-12-23 07:06:00,
2013-12-23 01:11:00,2.0,-1.0,30.23,South,180,6.0,11.0,91,0.00,,,0.00,TxWx,2013-12-23 07:11:00,
2013-12-23 01:16:00,2.0,-1.0,30.23,SSW,202,10.0,11.0,91,0.00,,,0.00,TxWx,2013-12-23 07:16:00,
2013-12-23 01:21:00,2.0,-1.0,30.23,South,180,2.0,17.0,90,0.00,,,0.00,TxWx,2013-12-23 07:21:00,
2013-12-23 01:26:00,2.0,-1.0,30.24,NW,315,3.0,13.0,90,0.00,,,0.00,TxWx,2013-12-23 07:26:00,
2013-12-23 01:31:00,1.0,-2.0,30.24,SW,225,7.0,13.0,90,0.00,,,0.00,TxWx,2013-12-23 07:31:00,
2013-12-23 01:36:00,1.0,-2.0,30.24,SSW,202,5.0,13.0,90,0.00,,,0.00,TxWx,2013-12-23 07:36:00,
2013-12-23 01:41:00,1.0,-2.0,30.24,SW,225,1.0,13.0,90,0.00,,,0.00,TxWx,2013-12-23 07:41:00,
2013-12-23 01:46:00,1.0,-2.0,30.24,SW,225,4.0,14.0,90,0.00,,,0.00,TxWx,2013-12-23 07:46:00,
2013-12-23 01:51:00,1.0,-2.0,30.24,SSW,202,4.0,12.0,90,0.00,,,0.00,TxWx,2013-12-23 07:51:00,
2013-12-23 01:56:00,1.0,-2.0,30.25,WSW,247,5.0,10.0,90,0.00,,,0.00,TxWx,2013-12-23 07:56:00,
2013-12-23 02:01:00,1.0,-2.0,30.25,SSW,202,5.0,11.0,90,0.00,,,0.00,TxWx,2013-12-23 08:01:00,
2013-12-23 02:06:00,1.0,-2.0,30.25,SW,225,4.0,12.0,90,0.00,,,0.00,TxWx,2013-12-23 08:06:00,
2013-12-23 02:11:00,1.0,-2.0,30.25,SSW,202,1.0,10.0,90,0.00,,,0.00,TxWx,2013-12-23 08:11:00,
2013-12-23 02:16:00,0.0,-3.0,30.25,SSW,202,1.0,9.0,90,0.00,,,0.00,TxWx,2013-12-23 08:16:00,
2013-12-23 02:21:00,0.0,-3.0,30.25,South,180,2.0,10.0,90,0.00,,,0.00,TxWx,2013-12-23 08:21:00,
2013-12-23 02:26:00,0.0,-3.0,30.25,SW,225,3.0,13.0,90,0.00,,,0.00,TxWx,2013-12-23 08:26:00,
2013-12-23 02:31:00,0.0,-3.0,30.25,SSW,202,8.0,11.0,90,0.00,,,0.00,TxWx,2013-12-23 08:31:00,
2013-12-23 02:36:00,0.0,-3.0,30.26,SSW,202,5.0,13.0,90,0.00,,,0.00,TxWx,2013-12-23 08:36:00,
2013-12-23 02:41:00,0.0,-3.0,30.25,SSW,202,2.0,11.0,90,0.00,,,0.00,TxWx,2013-12-23 08:41:00,
2013-12-23 02:46:00,0.0,-3.0,30.26,SSW,202,6.0,11.0,90,0.00,,,0.00,TxWx,2013-12-23 08:46:00,
2013-12-23 02:51:00,0.0,-3.0,30.26,SSW,202,5.0,11.0,90,0.00,,,0.00,TxWx,2013-12-23 08:51:00,
2013-12-23 02:56:00,0.0,-3.0,30.26,West,270,1.0,10.0,90,0.00,,,0.00,TxWx,2013-12-23 08:56:00,
2013-12-23 03:01:00,0.0,-3.0,30.26,SSW,202,5.0,10.0,90,0.00,,,0.00,TxWx,2013-12-23 09:01:00,
2013-12-23 03:06:00,0.0,-3.0,30.26,WNW,292,8.0,11.0,90,0.00,,,0.00,TxWx,2013-12-23 09:06:00,
2013-12-23 03:11:00,0.0,-3.0,30.26,West,270,5.0,8.0,90,0.00,,,0.00,TxWx,2013-12-23 09:11:00,
2013-12-23 03:16:00,0.0,-3.0,30.26,WSW,247,8.0,10.0,90,0.00,,,0.00,TxWx,2013-12-23 09:16:00,
2013-12-23 03:21:00,0.0,-3.0,30.26,South,180,6.0,9.0,89,0.00,,,0.00,TxWx,2013-12-23 09:21:00,
2013-12-23 03:26:00,0.0,-3.0,30.26,SW,225,1.0,13.0,90,0.00,,,0.00,TxWx,2013-12-23 09:26:00,
2013-12-23 03:31:00,0.0,-3.0,30.26,South,180,6.0,11.0,90,0.00,,,0.00,TxWx,2013-12-23 09:31:00,
2013-12-23 03:36:00,0.0,-3.0,30.26,SSW,202,6.0,11.0,90,0.00,,,0.00,TxWx,2013-12-23 09:36:00,
2013-12-23 03:41:00,0.0,-3.0,30.26,SW,225,2.0,10.0,90,0.00,,,0.00,TxWx,2013-12-23 09:41:00,
2013-12-23 03:46:00,0.0,-3.0,30.26,WSW,247,8.0,11.0,90,0.00,,,0.00,TxWx,2013-12-23 09:46:00,
2013-12-23 03:51:00,0.0,-3.0,30.27,WSW,247,10.0,10.0,90,0.00,,,0.00,TxWx,2013-12-23 09:51:00,
2013-12-23 03:56:00,0.0,-3.0,30.27,SW,225,3.0,11.0,90,0.00,,,0.00,TxWx,2013-12-23 09:56:00,
2013-12-23 04:01:00,0.0,-3.0,30.27,SSW,202,6.0,12.0,90,0.00,,,0.00,TxWx,2013-12-23 10:01:00,
2013-12-23 04:06:00,0.0,-3.0,30.27,SW,225,2.0,10.0,90,0.00,,,0.00,TxWx,2013-12-23 10:06:00,
2013-12-23 04:11:00,0.0,-3.0,30.27,SW,225,5.0,10.0,89,0.00,,,0.00,TxWx,2013-12-23 10:11:00,
2013-12-23 04:16:00,0.0,-3.0,30.27,SSW,202,2.0,12.0,89,0.00,,,0.00,TxWx,2013-12-23 10:16:00,
2013-12-23 04:21:00,0.0,-3.0,30.27,WSW,247,0.0,14.0,89,0.00,,,0.00,TxWx,2013-12-23 10:21:00,
2013-12-23 04:26:00,0.0,-3.0,30.27,SSW,202,6.0,10.0,89,0.00,,,0.00,TxWx,2013-12-23 10:26:00,
2013-12-23 04:31:00,0.0,-3.0,30.27,SW,225,6.0,12.0,89,0.00,,,0.00,TxWx,2013-12-23 10:31:00,
2013-12-23 04:36:00,0.0,-4.0,30.27,West,270,5.0,13.0,89,0.00,,,0.00,TxWx,2013-12-23 10:36:00,
2013-12-23 04:41:00,0.0,-4.0,30.27,SW,225,5.0,11.0,89,0.00,,,0.00,TxWx,2013-12-23 10:41:00,
2013-12-23 04:46:00,0.0,-4.0,30.28,SW,225,6.0,14.0,89,0.00,,,0.00,TxWx,2013-12-23 10:46:00,
2013-12-23 04:51:00,0.0,-4.0,30.27,West,270,3.0,14.0,89,0.00,,,0.00,TxWx,2013-12-23 10:51:00,
2013-12-23 04:56:00,0.0,-4.0,30.27,SW,225,5.0,10.0,89,0.00,,,0.00,TxWx,2013-12-23 10:56:00,
2013-12-23 05:01:00,0.0,-4.0,30.27,SW,225,3.0,8.0,89,0.00,,,0.00,TxWx,2013-12-23 11:01:00,
2013-12-23 05:06:00,-1.0,-5.0,30.27,SW,225,6.0,11.0,88,0.00,,,0.00,TxWx,2013-12-23 11:06:00,
2013-12-23 05:11:00,-1.0,-5.0,30.28,SSW,202,8.0,11.0,88,0.00,,,0.00,TxWx,2013-12-23 11:11:00,
2013-12-23 05:16:00,-1.0,-5.0,30.28,WSW,247,2.0,13.0,88,0.00,,,0.00,TxWx,2013-12-23 11:16:00,
2013-12-23 05:21:00,-1.0,-5.0,30.28,SSW,202,6.0,12.0,88,0.00,,,0.00,TxWx,2013-12-23 11:21:00,
2013-12-23 05:26:00,-1.0,-5.0,30.28,SW,225,6.0,10.0,89,0.00,,,0.00,TxWx,2013-12-23 11:26:00,
2013-12-23 05:31:00,-1.0,-5.0,30.28,SSW,202,7.0,11.0,89,0.00,,,0.00,TxWx,2013-12-23 11:31:00,
2013-12-23 05:36:00,-1.0,-5.0,30.28,SSW,202,0.0,9.0,89,0.00,,,0.00,TxWx,2013-12-23 11:36:00,
2013-12-23 05:41:00,-1.0,-5.0,30.29,West,270,5.0,12.0,89,0.00,,,0.00,TxWx,2013-12-23 11:41:00,
2013-12-23 05:46:00,-1.0,-5.0,30.29,WSW,247,5.0,11.0,89,0.00,,,0.00,TxWx,2013-12-23 11:46:00,
2013-12-23 05:51:00,-1.0,-4.0,30.29,WSW,247,3.0,10.0,89,0.00,,,0.00,TxWx,2013-12-23 11:51:00,
2013-12-23 05:56:00,-1.0,-4.0,30.29,SW,225,0.0,10.0,89,0.00,,,0.00,TxWx,2013-12-23 11:56:00,
2013-12-23 06:01:00,-1.0,-4.0,30.29,SSW,202,6.0,11.0,89,0.00,,,0.00,TxWx,2013-12-23 12:01:00,
2013-12-23 06:06:00,-1.0,-4.0,30.29,South,180,4.0,9.0,89,0.00,,,0.00,TxWx,2013-12-23 12:06:00,
2013-12-23 06:11:00,-2.0,-5.0,30.30,SW,225,3.0,11.0,89,0.00,,,0.00,TxWx,2013-12-23 12:11:00,
2013-12-23 06:16:00,-2.0,-5.0,30.30,SW,225,2.0,15.0,89,0.00,,,0.00,TxWx,2013-12-23 12:16:00,
2013-12-23 06:21:00,-2.0,-5.0,30.30,South,180,9.0,13.0,89,0.00,,,0.00,TxWx,2013-12-23 12:21:00,
2013-12-23 06:26:00,-2.0,-5.0,30.30,SSW,202,4.0,11.0,89,0.00,,,0.00,TxWx,2013-12-23 12:26:00,
2013-12-23 06:31:00,-2.0,-5.0,30.30,South,180,3.0,13.0,89,0.00,,,0.00,TxWx,2013-12-23 12:31:00,
2013-12-23 06:36:00,-2.0,-5.0,30.30,SSW,202,5.0,13.0,89,0.00,,,0.00,TxWx,2013-12-23 12:36:00,
2013-12-23 06:41:00,-2.0,-5.0,30.30,SSW,202,12.0,13.0,89,0.00,,,0.00,TxWx,2013-12-23 12:41:00,
2013-12-23 06:47:00,-3.0,-7.0,30.31,SW,225,8.0,15.0,89,0.00,,,0.00,TxWx,2013-12-23 12:47:00,
2013-12-23 06:52:00,-3.0,-7.0,30.31,SW,225,5.0,11.0,89,0.00,,,0.00,TxWx,2013-12-23 12:52:00,
2013-12-23 06:57:00,-3.0,-7.0,30.32,South,180,8.0,16.0,89,0.00,,,0.00,TxWx,2013-12-23 12:57:00,
2013-12-23 07:02:00,-3.0,-7.0,30.32,SE,135,6.0,13.0,89,0.00,,,0.00,TxWx,2013-12-23 13:02:00,
2013-12-23 07:07:00,-3.0,-7.0,30.32,WSW,247,8.0,13.0,89,0.00,,,0.00,TxWx,2013-12-23 13:07:00,
2013-12-23 07:12:00,-4.0,-8.0,30.32,SSW,202,6.0,10.0,89,0.00,,,0.00,TxWx,2013-12-23 13:12:00,
2013-12-23 07:17:00,-4.0,-8.0,30.32,WSW,247,8.0,10.0,89,0.00,,,0.00,TxWx,2013-12-23 13:17:00,
2013-12-23 07:22:00,-4.0,-8.0,30.33,SW,225,5.0,16.0,89,0.00,,,0.00,TxWx,2013-12-23 13:22:00,
2013-12-23 07:27:00,-4.0,-8.0,30.33,SW,225,5.0,11.0,89,0.00,,,0.00,TxWx,2013-12-23 13:27:00,
2013-12-23 07:32:00,-4.0,-8.0,30.33,SSW,202,5.0,10.0,89,0.00,,,0.00,TxWx,2013-12-23 13:32:00,
2013-12-23 07:37:00,-4.0,-8.0,30.33,SSW,202,5.0,10.0,89,0.00,,,0.00,TxWx,2013-12-23 13:37:00,
2013-12-23 07:42:00,-5.0,-9.0,30.34,SSW,202,4.0,12.0,88,0.00,,,0.00,TxWx,2013-12-23 13:42:00,
2013-12-23 07:47:00,-5.0,-9.0,30.34,SW,225,0.0,11.0,88,0.00,,,0.00,TxWx,2013-12-23 13:47:00,
2013-12-23 07:52:00,-5.0,-9.0,30.34,SW,225,3.0,13.0,88,0.00,,,0.00,TxWx,2013-12-23 13:52:00,
2013-12-23 07:57:00,-5.0,-9.0,30.34,SSW,202,10.0,13.0,88,0.00,,,0.00,TxWx,2013-12-23 13:57:00,
2013-12-23 08:02:00,-6.0,-10.0,30.34,SSW,202,5.0,11.0,88,0.00,,,0.00,TxWx,2013-12-23 14:02:00,
2013-12-23 08:07:00,-6.0,-10.0,30.35,SW,225,0.0,14.0,88,0.00,,,0.00,TxWx,2013-12-23 14:07:00,
2013-12-23 08:12:00,-6.0,-10.0,30.35,SW,225,5.0,11.0,88,0.00,,,0.00,TxWx,2013-12-23 14:12:00,
2013-12-23 08:17:00,-6.0,-10.0,30.35,SSW,202,0.0,11.0,88,0.00,,,0.00,TxWx,2013-12-23 14:17:00,
2013-12-23 08:22:00,-6.0,-10.0,30.35,SSW,202,0.0,11.0,88,0.00,,,0.00,TxWx,2013-12-23 14:22:00,
2013-12-23 08:27:00,-7.0,-11.0,30.36,SSW,202,6.0,11.0,88,0.00,,,0.00,TxWx,2013-12-23 14:27:00,
2013-12-23 08:32:00,-7.0,-11.0,30.36,SSW,202,6.0,7.0,88,0.00,,,0.00,TxWx,2013-12-23 14:32:00,
2013-12-23 08:37:00,-7.0,-11.0,30.36,SSW,202,3.0,10.0,88,0.00,,,0.00,TxWx,2013-12-23 14:37:00,
2013-12-23 08:42:00,-6.0,-10.0,30.36,South,180,0.0,6.0,89,0.00,,,0.00,TxWx,2013-12-23 14:42:00,
2013-12-23 08:47:00,-6.0,-10.0,30.36,SSW,202,0.0,10.0,89,0.00,,,0.00,TxWx,2013-12-23 14:47:00,
2013-12-23 08:52:00,-6.0,-10.0,30.36,SSE,157,1.0,10.0,88,0.00,,,0.00,TxWx,2013-12-23 14:52:00,
2013-12-23 08:57:00,-6.0,-10.0,30.37,SSW,202,5.0,9.0,88,0.00,,,0.00,TxWx,2013-12-23 14:57:00,
2013-12-23 09:02:00,-6.0,-10.0,30.37,West,270,6.0,10.0,88,0.00,,,0.00,TxWx,2013-12-23 15:02:00,
2013-12-23 09:07:00,-6.0,-10.0,30.37,WSW,247,0.0,11.0,88,0.00,,,0.00,TxWx,2013-12-23 15:07:00,
2013-12-23 09:12:00,-5.0,-9.0,30.37,South,180,3.0,12.0,88,0.00,,,0.00,TxWx,2013-12-23 15:12:00,
2013-12-23 09:17:00,-5.0,-9.0,30.36,SW,225,4.0,14.0,88,0.00,,,0.00,TxWx,2013-12-23 15:17:00,
2013-12-23 09:22:00,-5.0,-9.0,30.37,SSW,202,0.0,11.0,87,0.00,,,0.00,TxWx,2013-12-23 15:22:00,
2013-12-23 09:27:00,-5.0,-9.0,30.37,SSW,202,1.0,14.0,87,0.00,,,0.00,TxWx,2013-12-23 15:27:00,
2013-12-23 09:32:00,-5.0,-9.0,30.37,WNW,292,10.0,13.0,87,0.00,,,0.00,TxWx,2013-12-23 15:32:00,
2013-12-23 09:37:00,-5.0,-9.0,30.38,SW,225,9.0,13.0,87,0.00,,,0.00,TxWx,2013-12-23 15:37:00,
2013-12-23 09:42:00,-5.0,-9.0,30.38,WSW,247,2.0,11.0,87,0.00,,,0.00,TxWx,2013-12-23 15:42:00,
2013-12-23 09:47:00,-4.0,-8.0,30.38,SW,225,9.0,13.0,87,0.00,,,0.00,TxWx,2013-12-23 15:47:00,
2013-12-23 09:52:00,-4.0,-8.0,30.37,SSW,202,3.0,12.0,87,0.00,,,0.00,TxWx,2013-12-23 15:52:00,
2013-12-23 09:57:00,-4.0,-8.0,30.38,SSW,202,6.0,17.0,86,0.00,,,0.00,TxWx,2013-12-23 15:57:00,
2013-12-23 10:02:00,-4.0,-8.0,30.38,SW,225,3.0,14.0,86,0.00,,,0.00,TxWx,2013-12-23 16:02:00,
2013-12-23 10:07:00,-3.0,-7.0,30.38,West,270,5.0,9.0,86,0.00,,,0.00,TxWx,2013-12-23 16:07:00,
2013-12-23 10:12:00,-3.0,-7.0,30.38,WSW,247,5.0,11.0,86,0.00,,,0.00,TxWx,2013-12-23 16:12:00,
2013-12-23 10:17:00,-3.0,-7.0,30.38,SW,225,3.0,11.0,85,0.00,,,0.00,TxWx,2013-12-23 16:17:00,
2013-12-23 10:22:00,-3.0,-7.0,30.39,SW,225,5.0,11.0,86,0.00,,,0.00,TxWx,2013-12-23 16:22:00,
2013-12-23 10:27:00,-2.0,-7.0,30.38,SW,225,5.0,10.0,85,0.00,,,0.00,TxWx,2013-12-23 16:27:00,
2013-12-23 10:32:00,-2.0,-7.0,30.39,SW,225,8.0,13.0,85,0.00,,,0.00,TxWx,2013-12-23 16:32:00,
2013-12-23 10:37:00,-1.0,-6.0,30.39,SSW,202,4.0,13.0,84,0.00,,,0.00,TxWx,2013-12-23 16:37:00,
2013-12-23 10:42:00,-1.0,-6.0,30.39,South,180,1.0,13.0,83,0.00,,,0.00,TxWx,2013-12-23 16:42:00,
2013-12-23 10:47:00,-1.0,-7.0,30.39,WNW,292,8.0,13.0,81,0.00,,,0.00,TxWx,2013-12-23 16:47:00,
2013-12-23 10:52:00,-1.0,-7.0,30.39,WNW,292,4.0,11.0,80,0.00,,,0.00,TxWx,2013-12-23 16:52:00,
2013-12-23 10:57:00,-1.0,-7.0,30.39,South,180,5.0,14.0,79,0.00,,,0.00,TxWx,2013-12-23 16:57:00,
2013-12-23 11:02:00,-1.0,-7.0,30.39,West,270,10.0,13.0,79,0.00,,,0.00,TxWx,2013-12-23 17:02:00,
2013-12-23 11:07:00,-1.0,-7.0,30.39,WSW,247,8.0,13.0,78,0.00,,,0.00,TxWx,2013-12-23 17:07:00,
2013-12-23 11:12:00,-1.0,-7.0,30.39,SSW,202,2.0,13.0,79,0.00,,,0.00,TxWx,2013-12-23 17:12:00,
2013-12-23 11:17:00,0.0,-6.0,30.39,SW,225,3.0,11.0,78,0.00,,,0.00,TxWx,2013-12-23 17:17:00,
2013-12-23 11:22:00,0.0,-6.0,30.39,West,270,5.0,11.0,78,0.00,,,0.00,TxWx,2013-12-23 17:22:00,
2013-12-23 11:27:00,0.0,-7.0,30.38,WSW,247,1.0,14.0,77,0.00,,,0.00,TxWx,2013-12-23 17:27:00,
2013-12-23 11:32:00,0.0,-7.0,30.39,WNW,292,1.0,13.0,77,0.00,,,0.00,TxWx,2013-12-23 17:32:00,
2013-12-23 11:37:00,0.0,-7.0,30.38,WSW,247,0.0,10.0,77,0.00,,,0.00,TxWx,2013-12-23 17:37:00,
2013-12-23 11:42:00,0.0,-7.0,30.38,West,270,5.0,12.0,76,0.00,,,0.00,TxWx,2013-12-23 17:42:00,
2013-12-23 11:47:00,0.0,-7.0,30.38,West,270,3.0,11.0,75,0.00,,,0.00,TxWx,2013-12-23 17:47:00,
2013-12-23 11:52:00,0.0,-7.0,30.38,SW,225,3.0,13.0,76,0.00,,,0.00,TxWx,2013-12-23 17:52:00,
2013-12-23 11:57:00,0.0,-7.0,30.38,WSW,247,5.0,12.0,75,0.00,,,0.00,TxWx,2013-12-23 17:57:00,
2013-12-23 12:02:00,0.0,-7.0,30.39,West,270,9.0,12.0,75,0.00,,,0.00,TxWx,2013-12-23 18:02:00,
2013-12-23 12:07:00,0.0,-7.0,30.39,SW,225,8.0,13.0,74,0.00,,,0.00,TxWx,2013-12-23 18:07:00,
2013-12-23 12:12:00,0.0,-7.0,30.39,WSW,247,3.0,11.0,74,0.00,,,0.00,TxWx,2013-12-23 18:12:00,
2013-12-23 12:17:00,1.0,-6.0,30.38,SW,225,7.0,13.0,74,0.00,,,0.00,TxWx,2013-12-23 18:17:00,
2013-12-23 12:22:00,0.0,-8.0,30.38,West,270,4.0,15.0,73,0.00,,,0.00,TxWx,2013-12-23 18:22:00,
2013-12-23 12:27:00,0.0,-8.0,30.38,SSW,202,4.0,11.0,73,0.00,,,0.00,TxWx,2013-12-23 18:27:00,
2013-12-23 12:32:00,1.0,-6.0,30.39,SW,225,0.0,14.0,74,0.00,,,0.00,TxWx,2013-12-23 18:32:00,
2013-12-23 12:37:00,1.0,-7.0,30.38,West,270,5.0,12.0,73,0.00,,,0.00,TxWx,2013-12-23 18:37:00,
2013-12-23 12:42:00,1.0,-7.0,30.38,WNW,292,6.0,14.0,73,0.00,,,0.00,TxWx,2013-12-23 18:42:00,
2013-12-23 12:47:00,1.0,-7.0,30.38,WSW,247,5.0,11.0,73,0.00,,,0.00,TxWx,2013-12-23 18:47:00,
2013-12-23 12:52:00,1.0,-7.0,30.38,WSW,247,6.0,13.0,73,0.00,,,0.00,TxWx,2013-12-23 18:52:00,
2013-12-23 12:57:00,1.0,-7.0,30.39,SW,225,8.0,14.0,73,0.00,,,0.00,TxWx,2013-12-23 18:57:00,
2013-12-23 13:03:00,1.0,-7.0,30.38,SSW,202,11.0,14.0,72,0.00,,,0.00,TxWx,2013-12-23 19:03:00,
2013-12-23 13:08:00,1.0,-7.0,30.38,West,270,11.0,14.0,73,0.00,,,0.00,TxWx,2013-12-23 19:08:00,
2013-12-23 13:13:00,1.0,-7.0,30.38,WNW,292,8.0,13.0,72,0.00,,,0.00,TxWx,2013-12-23 19:13:00,
2013-12-23 13:18:00,1.0,-6.0,30.38,West,270,5.0,13.0,74,0.00,,,0.00,TxWx,2013-12-23 19:18:00,
2013-12-23 13:23:00,1.0,-6.0,30.39,SW,225,7.0,10.0,74,0.00,,,0.00,TxWx,2013-12-23 19:23:00,
2013-12-23 13:28:00,1.0,-6.0,30.38,WNW,292,10.0,14.0,74,0.00,,,0.00,TxWx,2013-12-23 19:28:00,
2013-12-23 13:33:00,1.0,-6.0,30.38,SW,225,7.0,12.0,74,0.00,,,0.00,TxWx,2013-12-23 19:33:00,
2013-12-23 13:38:00,1.0,-6.0,30.38,WSW,247,3.0,13.0,75,0.00,,,0.00,TxWx,2013-12-23 19:38:00,
2013-12-23 13:43:00,1.0,-6.0,30.38,West,270,7.0,11.0,75,0.00,,,0.00,TxWx,2013-12-23 19:43:00,
2013-12-23 13:48:00,1.0,-6.0,30.38,SW,225,5.0,9.0,75,0.00,,,0.00,TxWx,2013-12-23 19:48:00,
2013-12-23 13:53:00,1.0,-6.0,30.38,West,270,11.0,13.0,75,0.00,,,0.00,TxWx,2013-12-23 19:53:00,
2013-12-23 13:58:00,0.0,-7.0,30.39,WSW,247,5.0,13.0,75,0.00,,,0.00,TxWx,2013-12-23 19:58:00,
2013-12-23 14:03:00,0.0,-7.0,30.39,WSW,247,4.0,12.0,76,0.00,,,0.00,TxWx,2013-12-23 20:03:00,
2013-12-23 14:08:00,1.0,-6.0,30.39,West,270,11.0,15.0,76,0.00,,,0.00,TxWx,2013-12-23 20:08:00,
2013-12-23 14:13:00,1.0,-6.0,30.39,WNW,292,7.0,11.0,76,0.00,,,0.00,TxWx,2013-12-23 20:13:00,
2013-12-23 14:18:00,0.0,-7.0,30.39,SW,225,8.0,13.0,76,0.00,,,0.00,TxWx,2013-12-23 20:18:00,
2013-12-23 14:23:00,1.0,-6.0,30.39,WSW,247,6.0,10.0,77,0.00,,,0.00,TxWx,2013-12-23 20:23:00,
2013-12-23 14:28:00,1.0,-6.0,30.39,WSW,247,0.0,13.0,77,0.00,,,0.00,TxWx,2013-12-23 20:28:00,
2013-12-23 14:33:00,1.0,-6.0,30.39,West,270,9.0,11.0,76,0.00,,,0.00,TxWx,2013-12-23 20:33:00,
2013-12-23 14:38:00,1.0,-6.0,30.40,West,270,6.0,13.0,77,0.00,,,0.00,TxWx,2013-12-23 20:38:00,
2013-12-23 14:43:00,1.0,-6.0,30.40,SW,225,6.0,11.0,77,0.00,,,0.00,TxWx,2013-12-23 20:43:00,
2013-12-23 14:48:00,0.0,-7.0,30.40,WSW,247,5.0,13.0,77,0.00,,,0.00,TxWx,2013-12-23 20:48:00,
2013-12-23 14:53:00,1.0,-6.0,30.40,West,270,4.0,11.0,77,0.00,,,0.00,TxWx,2013-12-23 20:53:00,
2013-12-23 14:58:00,1.0,-6.0,30.40,NW,315,9.0,10.0,77,0.00,,,0.00,TxWx,2013-12-23 20:58:00,
2013-12-23 15:03:00,1.0,-6.0,30.40,SW,225,3.0,12.0,77,0.00,,,0.00,TxWx,2013-12-23 21:03:00,
2013-12-23 15:08:00,1.0,-6.0,30.40,South,180,5.0,7.0,77,0.00,,,0.00,TxWx,2013-12-23 21:08:00,
2013-12-23 15:13:00,1.0,-6.0,30.41,WNW,292,5.0,12.0,77,0.00,,,0.00,TxWx,2013-12-23 21:13:00,
2013-12-23 15:18:00,1.0,-6.0,30.41,West,270,3.0,10.0,77,0.00,,,0.00,TxWx,2013-12-23 21:18:00,
2013-12-23 15:23:00,0.0,-6.0,30.41,WNW,292,6.0,10.0,78,0.00,,,0.00,TxWx,2013-12-23 21:23:00,
2013-12-23 15:28:00,0.0,-6.0,30.41,SW,225,3.0,11.0,78,0.00,,,0.00,TxWx,2013-12-23 21:28:00,
2013-12-23 15:33:00,0.0,-6.0,30.41,SW,225,3.0,12.0,78,0.00,,,0.00,TxWx,2013-12-23 21:33:00,
2013-12-23 15:38:00,0.0,-6.0,30.41,WSW,247,5.0,12.0,79,0.00,,,0.00,TxWx,2013-12-23 21:38:00,
2013-12-23 15:43:00,0.0,-6.0,30.42,SW,225,5.0,13.0,79,0.00,,,0.00,TxWx,2013-12-23 21:43:00,
2013-12-23 15:48:00,0.0,-6.0,30.42,WSW,247,3.0,10.0,79,0.00,,,0.00,TxWx,2013-12-23 21:48:00,
2013-12-23 15:53:00,0.0,-6.0,30.42,SSW,202,5.0,13.0,79,0.00,,,0.00,TxWx,2013-12-23 21:53:00,
2013-12-23 15:58:00,0.0,-6.0,30.43,West,270,8.0,11.0,79,0.00,,,0.00,TxWx,2013-12-23 21:58:00,
2013-12-23 16:03:00,0.0,-6.0,30.43,SW,225,1.0,9.0,79,0.00,,,0.00,TxWx,2013-12-23 22:03:00,
2013-12-23 16:08:00,0.0,-6.0,30.43,SW,225,8.0,12.0,79,0.00,,,0.00,TxWx,2013-12-23 22:08:00,
2013-12-23 16:13:00,0.0,-6.0,30.43,SSW,202,5.0,9.0,79,0.00,,,0.00,TxWx,2013-12-23 22:13:00,
2013-12-23 16:18:00,0.0,-6.0,30.43,SW,225,5.0,9.0,80,0.00,,,0.00,TxWx,2013-12-23 22:18:00,
2013-12-23 16:23:00,0.0,-6.0,30.43,SW,225,11.0,11.0,80,0.00,,,0.00,TxWx,2013-12-23 22:23:00,
2013-12-23 16:28:00,0.0,-6.0,30.43,West,270,0.0,10.0,80,0.00,,,0.00,TxWx,2013-12-23 22:28:00,
2013-12-23 16:33:00,0.0,-6.0,30.43,SW,225,5.0,8.0,80,0.00,,,0.00,TxWx,2013-12-23 22:33:00,
2013-12-23 16:38:00,-1.0,-7.0,30.43,SW,225,1.0,7.0,81,0.00,,,0.00,TxWx,2013-12-23 22:38:00,
2013-12-23 16:43:00,-1.0,-7.0,30.43,SW,225,6.0,10.0,81,0.00,,,0.00,TxWx,2013-12-23 22:43:00,
2013-12-23 16:48:00,-1.0,-6.0,30.43,WSW,247,5.0,12.0,81,0.00,,,0.00,TxWx,2013-12-23 22:48:00,
2013-12-23 16:53:00,-1.0,-6.0,30.44,West,270,3.0,8.0,81,0.00,,,0.00,TxWx,2013-12-23 22:53:00,
2013-12-23 16:58:00,-1.0,-6.0,30.44,SW,225,4.0,10.0,82,0.00,,,0.00,TxWx,2013-12-23 22:58:00,
2013-12-23 17:03:00,-1.0,-6.0,30.44,WNW,292,1.0,6.0,82,0.00,,,0.00,TxWx,2013-12-23 23:03:00,
2013-12-23 17:08:00,-1.0,-6.0,30.44,SW,225,2.0,8.0,82,0.00,,,0.00,TxWx,2013-12-23 23:08:00,
2013-12-23 17:13:00,-1.0,-6.0,30.44,WSW,247,8.0,8.0,82,0.00,,,0.00,TxWx,2013-12-23 23:13:00,
2013-12-23 17:18:00,-1.0,-6.0,30.44,SSW,202,0.0,8.0,82,0.00,,,0.00,TxWx,2013-12-23 23:18:00,
2013-12-23 17:23:00,-1.0,-6.0,30.45,WSW,247,1.0,10.0,81,0.00,,,0.00,TxWx,2013-12-23 23:23:00,
2013-12-23 17:28:00,-1.0,-6.0,30.44,SW,225,0.0,7.0,82,0.00,,,0.00,TxWx,2013-12-23 23:28:00,
2013-12-23 17:33:00,-1.0,-6.0,30.45,SSW,202,0.0,6.0,82,0.00,,,0.00,TxWx,2013-12-23 23:33:00,
2013-12-23 17:38:00,-1.0,-6.0,30.45,WSW,247,7.0,9.0,82,0.00,,,0.00,TxWx,2013-12-23 23:38:00,
2013-12-23 17:43:00,-1.0,-6.0,30.45,SW,225,4.0,9.0,82,0.00,,,0.00,TxWx,2013-12-23 23:43:00,
2013-12-23 17:48:00,-1.0,-6.0,30.45,West,270,4.0,10.0,82,0.00,,,0.00,TxWx,2013-12-23 23:48:00,
2013-12-23 17:53:00,-1.0,-6.0,30.46,SW,225,5.0,10.0,81,0.00,,,0.00,TxWx,2013-12-23 23:53:00,
2013-12-23 17:58:00,-1.0,-6.0,30.46,WSW,247,4.0,12.0,81,0.00,,,0.00,TxWx,2013-12-23 23:58:00,
2013-12-23 18:03:00,-1.0,-7.0,30.46,WSW,247,0.0,11.0,81,0.00,,,0.00,TxWx,2013-12-24 00:03:00,
2013-12-23 18:08:00,-2.0,-8.0,30.46,WNW,292,2.0,9.0,80,0.00,,,0.00,TxWx,2013-12-24 00:08:00,
2013-12-23 18:13:00,-1.0,-7.0,30.46,West,270,1.0,10.0,80,0.00,,,0.00,TxWx,2013-12-24 00:13:00,
2013-12-23 18:18:00,-1.0,-7.0,30.47,West,270,4.0,8.0,80,0.00,,,0.00,TxWx,2013-12-24 00:18:00,
2013-12-23 18:23:00,-2.0,-8.0,30.46,SW,225,6.0,10.0,80,0.00,,,0.00,TxWx,2013-12-24 00:23:00,
2013-12-23 18:28:00,-2.0,-8.0,30.47,SW,225,1.0,9.0,79,0.00,,,0.00,TxWx,2013-12-24 00:28:00,
2013-12-23 18:33:00,-2.0,-8.0,30.47,SSW,202,0.0,10.0,79,0.00,,,0.00,TxWx,2013-12-24 00:33:00,
2013-12-23 18:38:00,-2.0,-8.0,30.47,SW,225,4.0,8.0,79,0.00,,,0.00,TxWx,2013-12-24 00:38:00,
2013-12-23 18:43:00,-2.0,-8.0,30.47,WSW,247,7.0,13.0,79,0.00,,,0.00,TxWx,2013-12-24 00:43:00,
2013-12-23 18:48:00,-2.0,-8.0,30.47,WNW,292,8.0,8.0,79,0.00,,,0.00,TxWx,2013-12-24 00:48:00,
2013-12-23 18:53:00,-2.0,-8.0,30.47,WSW,247,4.0,10.0,79,0.00,,,0.00,TxWx,2013-12-24 00:53:00,
2013-12-23 18:59:00,-2.0,-8.0,30.48,SW,225,5.0,10.0,79,0.00,,,0.00,TxWx,2013-12-24 00:59:00,
2013-12-23 19:04:00,-2.0,-8.0,30.47,WSW,247,6.0,10.0,79,0.00,,,0.00,TxWx,2013-12-24 01:04:00,
2013-12-23 19:09:00,-2.0,-8.0,30.47,SSW,202,2.0,9.0,79,0.00,,,0.00,TxWx,2013-12-24 01:09:00,
2013-12-23 19:14:00,-2.0,-8.0,30.47,WSW,247,0.0,8.0,79,0.00,,,0.00,TxWx,2013-12-24 01:14:00,
2013-12-23 19:19:00,-2.0,-8.0,30.47,WSW,247,8.0,8.0,79,0.00,,,0.00,TxWx,2013-12-24 01:19:00,
2013-12-23 19:24:00,-2.0,-8.0,30.47,West,270,3.0,9.0,79,0.00,,,0.00,TxWx,2013-12-24 01:24:00,
2013-12-23 19:29:00,-2.0,-8.0,30.47,SW,225,4.0,10.0,79,0.00,,,0.00,TxWx,2013-12-24 01:29:00,
2013-12-23 19:34:00,-2.0,-8.0,30.47,West,270,0.0,8.0,80,0.00,,,0.00,TxWx,2013-12-24 01:34:00,
2013-12-23 19:39:00,-1.0,-7.0,30.47,West,270,3.0,7.0,79,0.00,,,0.00,TxWx,2013-12-24 01:39:00,
2013-12-23 19:44:00,-1.0,-7.0,30.48,SSW,202,5.0,8.0,79,0.00,,,0.00,TxWx,2013-12-24 01:44:00,
2013-12-23 19:49:00,-1.0,-7.0,30.48,SW,225,1.0,8.0,79,0.00,,,0.00,TxWx,2013-12-24 01:49:00,
2013-12-23 19:54:00,-1.0,-7.0,30.47,West,270,0.0,6.0,79,0.00,,,0.00,TxWx,2013-12-24 01:54:00,
2013-12-23 19:59:00,-1.0,-7.0,30.47,SW,225,5.0,7.0,79,0.00,,,0.00,TxWx,2013-12-24 01:59:00,
2013-12-23 20:04:00,-1.0,-7.0,30.48,WNW,292,1.0,9.0,79,0.00,,,0.00,TxWx,2013-12-24 02:04:00,
2013-12-23 20:09:00,-1.0,-7.0,30.48,SW,225,2.0,5.0,79,0.00,,,0.00,TxWx,2013-12-24 02:09:00,
2013-12-23 20:14:00,-1.0,-7.0,30.48,West,270,4.0,10.0,78,0.00,,,0.00,TxWx,2013-12-24 02:14:00,
2013-12-23 20:19:00,-1.0,-7.0,30.48,SW,225,1.0,11.0,78,0.00,,,0.00,TxWx,2013-12-24 02:19:00,
2013-12-23 20:24:00,-1.0,-7.0,30.47,West,270,3.0,6.0,78,0.00,,,0.00,TxWx,2013-12-24 02:24:00,
2013-12-23 20:29:00,-1.0,-7.0,30.47,West,270,6.0,8.0,78,0.00,,,0.00,TxWx,2013-12-24 02:29:00,
2013-12-23 20:34:00,-1.0,-7.0,30.47,West,270,0.0,8.0,78,0.00,,,0.00,TxWx,2013-12-24 02:34:00,
2013-12-23 20:39:00,-1.0,-7.0,30.48,SW,225,7.0,8.0,78,0.00,,,0.00,TxWx,2013-12-24 02:39:00,
2013-12-23 20:44:00,-2.0,-8.0,30.48,South,180,8.0,10.0,78,0.00,,,0.00,TxWx,2013-12-24 02:44:00,
2013-12-23 20:49:00,-2.0,-8.0,30.48,WNW,292,1.0,8.0,78,0.00,,,0.00,TxWx,2013-12-24 02:49:00,
2013-12-23 20:54:00,-2.0,-8.0,30.48,WSW,247,3.0,8.0,78,0.00,,,0.00,TxWx,2013-12-24 02:54:00,
2013-12-23 20:59:00,-2.0,-8.0,30.47,SW,225,0.0,8.0,79,0.00,,,0.00,TxWx,2013-12-24 02:59:00,
2013-12-23 21:04:00,-2.0,-8.0,30.47,West,270,2.0,6.0,79,0.00,,,0.00,TxWx,2013-12-24 03:04:00,
2013-12-23 21:09:00,-2.0,-8.0,30.47,WSW,247,10.0,10.0,79,0.00,,,0.00,TxWx,2013-12-24 03:09:00,
2013-12-23 21:14:00,-2.0,-8.0,30.47,West,270,3.0,9.0,79,0.00,,,0.00,TxWx,2013-12-24 03:14:00,
2013-12-23 21:19:00,-2.0,-8.0,30.47,SSW,202,5.0,6.0,79,0.00,,,0.00,TxWx,2013-12-24 03:19:00,
2013-12-23 21:24:00,-2.0,-8.0,30.48,SSW,202,0.0,7.0,79,0.00,,,0.00,TxWx,2013-12-24 03:24:00,
2013-12-23 21:29:00,-2.0,-8.0,30.48,SSW,202,3.0,7.0,79,0.00,,,0.00,TxWx,2013-12-24 03:29:00,
2013-12-23 21:34:00,-2.0,-8.0,30.47,SE,135,0.0,9.0,79,0.00,,,0.00,TxWx,2013-12-24 03:34:00,
2013-12-23 21:39:00,-3.0,-9.0,30.48,SSW,202,5.0,8.0,79,0.00,,,0.00,TxWx,2013-12-24 03:39:00,
2013-12-23 21:44:00,-3.0,-9.0,30.47,WSW,247,0.0,6.0,79,0.00,,,0.00,TxWx,2013-12-24 03:44:00,
2013-12-23 21:49:00,-3.0,-9.0,30.47,WSW,247,3.0,5.0,79,0.00,,,0.00,TxWx,2013-12-24 03:49:00,
2013-12-23 21:54:00,-3.0,-9.0,30.46,West,270,0.0,6.0,79,0.00,,,0.00,TxWx,2013-12-24 03:54:00,
2013-12-23 21:59:00,-3.0,-9.0,30.47,SSW,202,0.0,5.0,79,0.00,,,0.00,TxWx,2013-12-24 03:59:00,
2013-12-23 22:04:00,-3.0,-9.0,30.47,SSW,202,1.0,5.0,80,0.00,,,0.00,TxWx,2013-12-24 04:04:00,
2013-12-23 22:09:00,-3.0,-9.0,30.47,SW,225,2.0,5.0,80,0.00,,,0.00,TxWx,2013-12-24 04:09:00,
2013-12-23 22:14:00,-3.0,-9.0,30.47,SW,225,0.0,3.0,80,0.00,,,0.00,TxWx,2013-12-24 04:14:00,
2013-12-23 22:19:00,-4.0,-10.0,30.47,SSW,202,0.0,7.0,80,0.00,,,0.00,TxWx,2013-12-24 04:19:00,
2013-12-23 22:24:00,-4.0,-10.0,30.47,SSW,202,0.0,3.0,80,0.00,,,0.00,TxWx,2013-12-24 04:24:00,
2013-12-23 22:29:00,-4.0,-10.0,30.47,SW,225,0.0,5.0,80,0.00,,,0.00,TxWx,2013-12-24 04:29:00,
2013-12-23 22:34:00,-4.0,-10.0,30.47,SSW,202,0.0,5.0,80,0.00,,,0.00,TxWx,2013-12-24 04:34:00,
2013-12-23 22:39:00,-4.0,-10.0,30.47,SSW,202,0.0,0.0,80,0.00,,,0.00,TxWx,2013-12-24 04:39:00,
2013-12-23 22:44:00,-4.0,-10.0,30.46,SSW,202,0.0,0.0,80,0.00,,,0.00,TxWx,2013-12-24 04:44:00,
2013-12-23 22:49:00,-4.0,-10.0,30.46,SW,225,0.0,0.0,80,0.00,,,0.00,TxWx,2013-12-24 04:49:00,
2013-12-23 22:54:00,-5.0,-11.0,30.46,SSW,202,0.0,0.0,80,0.00,,,0.00,TxWx,2013-12-24 04:54:00,
2013-12-23 22:59:00,-5.0,-11.0,30.47,SW,225,0.0,0.0,80,0.00,,,0.00,TxWx,2013-12-24 04:59:00,
2013-12-23 23:04:00,-5.0,-10.0,30.47,South,180,0.0,0.0,81,0.00,,,0.00,TxWx,2013-12-24 05:04:00,
2013-12-23 23:09:00,-5.0,-10.0,30.48,SW,225,0.0,0.0,81,0.00,,,0.00,TxWx,2013-12-24 05:09:00,
2013-12-23 23:14:00,-5.0,-10.0,30.47,SSW,202,0.0,0.0,81,0.00,,,0.00,TxWx,2013-12-24 05:14:00,
2013-12-23 23:19:00,-5.0,-10.0,30.46,SW,225,0.0,0.0,81,0.00,,,0.00,TxWx,2013-12-24 05:19:00,
2013-12-23 23:24:00,-5.0,-10.0,30.47,SSW,202,0.0,0.0,81,0.00,,,0.00,TxWx,2013-12-24 05:24:00,
2013-12-23 23:29:00,-6.0,-11.0,30.47,SW,225,0.0,0.0,81,0.00,,,0.00,TxWx,2013-12-24 05:29:00,
2013-12-23 23:34:00,-6.0,-11.0,30.46,SW,225,0.0,0.0,81,0.00,,,0.00,TxWx,2013-12-24 05:34:00,
2013-12-23 23:39:00,-6.0,-11.0,30.47,South,180,0.0,0.0,81,0.00,,,0.00,TxWx,2013-12-24 05:39:00,
2013-12-23 23:44:00,-6.0,-11.0,30.47,SW,225,0.0,0.0,81,0.00,,,0.00,TxWx,2013-12-24 05:44:00,
2013-12-23 23:49:00,-6.0,-11.0,30.47,SSW,202,0.0,0.0,82,0.00,,,0.00,TxWx,2013-12-24 05:49:00,
2013-12-23 23:54:00,-6.0,-11.0,30.47,SSW,202,0.0,0.0,82,0.00,,,0.00,TxWx,2013-12-24 05:54:00,
2013-12-23 23:59:00,-6.0,-11.0,30.47,SW,225,0.0,0.0,82,0.00,,,0.00,TxWx,2013-12-24 05:59:00,